Location: Caixon
(43.4106°N, 0.0273°E)
Time: 22:49:29
(UTC+00:00)

YAOGAN 6 - Pass Details

Date: 16 October 2021
Orbit: 464 x 499 km, 97.1° (Epoch: 07 December)

Event Time Altitude Azimuth Distance (km) Brightness Sun altitude
Rises 05:31:24 0° 5° (N) 2,513 6.2 -8.7°
Reaches altitude 10° 05:33:30 10° 358° (N) 1,634 5.2 -8.3°
Maximum altitude 05:36:50 43° 287° (WNW) 676 2.8 -7.7°
Drops below altitude 10° 05:40:11 10° 214° (SW) 1,635 5.0 -7.1°
Sets 05:42:17 0° 208° (SSW) 2,513 6.0 -6.7°
